Home > Weather > Gambier Islands > Past weeks

Flag for French Polynesia Past Weather in Gambier Islands, French Polynesia — Yesterday and Last 2 Weeks

Now
71 °F

Mild.


Feels Like: 69 °F
Forecast: 71 / 76 °F
Wind: 3 mph from North

Location: Rikitea

Current Time: Aug 24, 2016 at 7:48:33 PM

Latest Report: Aug 24, 2016 at 7:00 PM


Visibility: N/A

Pressure: 30.13 "Hg

Humidity: 89%

Dew Point: 68 °F

Location of Gambier IslandsLocation

Past Weather in Gambier Islands — Graph

°F

Gambier Islands Temperature Yesterday

Maximum temperature yesterday: 75 °F (at 12:00 PM)
Minimum temperature yesterday: 69 °F (at 6:00 AM)
Average temperature yesterday: 71 °F

High & Low Weather Summary for the Past Weeks

 TemperatureHumidityPressure
High75 °F (Aug 12, 10:00 AM)96% (Aug 12, 6:00 PM)30.19 "Hg (Aug 12, 6:00 PM)
Low62 °F (Aug 18, 11:00 PM)45% (Aug 14, 1:00 PM)29.62 "Hg (Aug 17, 3:00 PM)
Average69 °F70%30.04 "Hg
* Reported Aug 9 6:00 PM — Aug 24 6:00 PM, Gambier Islands, Weather by CustomWeather, © 2016

Note: Actual official high and low records may vary slightly from our data, if they occured in-between our weather recording intervals... More about our weather records

Advertising

Gambier Islands Weather History for the Previous 24 Hours

Scroll right to see more
 ConditionsComfort  
Time TempWeatherWind HumidityBarometerVisibility
6:00 PM
Wed, Aug 24
72 °FMild.2 mph88%30.11 "HgN/A
5:00 PM73 °FOvercast.5 mph84%30.10 "Hg25 mi
4:00 PM73 °FScattered clouds.5 mph81%30.08 "Hg25 mi
3:00 PM74 °FScattered clouds.5 mph80%30.08 "Hg25 mi
2:00 PM74 °FScattered clouds.6 mph79%30.08 "Hg25 mi
1:00 PM74 °FPartly sunny.7 mph76%30.09 "Hg25 mi
12:00 PM75 °FPartly sunny.9 mph76%30.09 "Hg25 mi
11:00 AM75 °FOvercast.10 mph76%30.11 "Hg19 mi
10:00 AM75 °FPartly sunny.10 mph78%30.12 "Hg25 mi
9:00 AM73 °FOvercast.9 mph80%30.12 "Hg25 mi
8:00 AM72 °FOvercast.9 mph79%30.10 "Hg25 mi
7:00 AM71 °FScattered clouds.10 mph82%30.08 "Hg25 mi
6:00 AM70 °FOvercast.9 mph84%30.08 "Hg19 mi
5:00 AM71 °FMild.9 mph78%30.06 "HgN/A
4:00 AM71 °FMild.7 mph79%30.06 "HgN/A
3:00 AM71 °FMild.8 mph79%30.08 "HgN/A
2:00 AM71 °FMild.9 mph78%30.07 "HgN/A
1:00 AM71 °FMild.9 mph80%30.08 "HgN/A
12:00 AM71 °FMild.8 mph78%30.11 "HgN/A
11:00 PM
Tue, Aug 23
71 °FMild.7 mph79%30.13 "HgN/A
10:00 PM70 °FMild.7 mph80%30.14 "HgN/A
9:00 PM70 °FMild.5 mph78%30.16 "HgN/A
8:00 PM71 °FMild.2 mph80%30.16 "HgN/A
7:00 PM70 °FMild.5 mph79%30.13 "HgN/A
Weather by CustomWeather, © 2016

See weather overviewHow to use our weather pages